Tomahawk, WI

5:14 AM CDT on August 26, 2016 (GMT -0500)
Tomahawk

Weather History for KTKV - January, 2014

Change the Weather History Date:

Wednesday, January 15, 2014

  Actual Average (KRHI) Record (KRHI)
Temperature  
Mean Temperature 8 °F 12 °F  
Max Temperature 12 °F 21 °F 40 °F (1990)
Min Temperature 4 °F 3 °F -39 °F (1972)
Degree Days  
Heating Degree Days 57 53  
Month to date heating degree days 790  
Since 1 July heating degree days 4416  
Cooling Degree Days 0 0  
Month to date cooling degree days 0  
Year to date cooling degree days 0  
Moisture  
Dew Point 3 °F    
Average Humidity 78    
Maximum Humidity 87    
Minimum Humidity 64    
Precipitation  
Precipitation 0.00 in 0.03 in 0.33 in (1950)
Month to date precipitation 0.55  
Year to date precipitation 0.55  
Snow  
Snow 0.00 in - 4.00 in (1950)
Month to date snowfall  
Since 1 July snowfall  
Snow Depth -    
Sea Level Pressure  
Sea Level Pressure 29.79 in    
Wind  
Wind Speed 7 mph (WSW)    
Max Wind Speed 13 mph    
Max Gust Speed 21 mph    
Visibility 8 miles    
Events Snow    
T = Trace of Precipitation, MM = Missing Value Source: NWS Daily Summary

Daily Weather History Graph

Daily Weather History Graph

Search for Another Location

Airport or City:

Trip Planner

Search our weather history database for the weather conditions in past years. The results will help you decide how hot, cold, wet, or windy it might be!

Date:

Astronomy

Jan. 15, 2014 Rise Set
Actual Time 7:35 AM CST 4:42 PM CST
Civil Twilight 7:02 AM CST 5:15 PM CST
Nautical Twilight 6:25 AM CST 5:52 PM CST
Astronomical Twilight 5:50 AM CST 6:27 PM CST
Moon 4:43 PM CST (1/15) 6:48 AM CST (1/15)
Length of Visible Light 10h 13m
Length of Day
9h 07m
Full, 100% of the Moon is Illuminated
Jan 15
Full
Jan 15
Full
Jan 23
Last Quarter
Jan 30
New
Feb 6
First Quarter

Hourly Weather History & Observations

Time (CST) Temp. Windchill Dew Point Humidity Pressure Visibility Wind Dir Wind Speed Gust Speed Precip Events Conditions
12:15 AM 12.6 °F -1.4 °F 6.6 °F 77% 29.88 in 10.0 mi NNW 11.5 mph 19.6 mph N/A Snow Light Snow
12:35 AM 12.2 °F -1.8 °F 6.4 °F 78% 29.88 in 10.0 mi NNW 11.5 mph 18.4 mph N/A Snow Light Snow
12:55 AM 12.0 °F -2.0 °F 6.4 °F 78% 29.88 in 10.0 mi NW 11.5 mph 17.3 mph N/A   Overcast
1:15 AM 12.0 °F 0.5 °F 6.6 °F 79% 29.88 in 10.0 mi NW 8.1 mph - N/A   Overcast
1:35 AM 12.0 °F -1.3 °F 6.8 °F 80% 29.88 in 10.0 mi NW 10.4 mph 18.4 mph N/A   Overcast
1:55 AM 12.0 °F -0.4 °F 6.8 °F 80% 29.88 in 10.0 mi NW 9.2 mph 18.4 mph N/A   Overcast
2:15 AM 12.0 °F -1.3 °F 6.8 °F 80% 29.90 in 10.0 mi NW 10.4 mph 17.3 mph N/A Snow Light Snow
2:35 AM 11.8 °F -3.0 °F 7.0 °F 81% 29.90 in 10.0 mi NW 12.7 mph 20.7 mph N/A Snow Light Snow
2:55 AM 11.7 °F -0.9 °F 6.8 °F 81% 29.91 in 10.0 mi NW 9.2 mph - N/A Snow Light Snow
3:15 AM 11.7 °F -1.7 °F 6.8 °F 81% 29.91 in 7.0 mi NNW 10.4 mph 19.6 mph N/A Snow Light Snow
3:35 AM 11.3 °F -1.3 °F 6.8 °F 82% 29.91 in 7.0 mi NW 9.2 mph 18.4 mph N/A Snow Light Snow
3:55 AM 11.1 °F 0.4 °F 6.6 °F 82% 29.91 in 5.0 mi WNW 6.9 mph - N/A Snow Light Snow
4:15 AM 11.1 °F -1.6 °F 6.6 °F 82% 29.92 in 7.0 mi NW 9.2 mph 16.1 mph N/A Snow Light Snow
4:35 AM 10.9 °F -0.8 °F 6.6 °F 83% 29.92 in 5.0 mi NW 8.1 mph - N/A Snow Light Snow
4:55 AM 10.9 °F 0.2 °F 6.3 °F 81% 29.92 in 10.0 mi NW 6.9 mph - N/A Snow Light Snow
5:15 AM 10.8 °F -4.3 °F 5.9 °F 81% 29.92 in 7.0 mi NNW 12.7 mph - N/A Snow Light Snow
5:35 AM 10.4 °F -1.5 °F 5.9 °F 82% 29.92 in 5.0 mi NW 8.1 mph - N/A Snow Light Snow
5:55 AM 10.2 °F -2.7 °F 5.7 °F 82% 29.93 in 5.0 mi NW 9.2 mph - N/A Snow Light Snow
6:15 AM 10.0 °F -0.9 °F 5.5 °F 82% 29.93 in 7.0 mi WNW 6.9 mph - N/A Snow Light Snow
6:35 AM 9.9 °F -1.1 °F 5.7 °F 83% 29.93 in 7.0 mi WNW 6.9 mph - N/A Snow Light Snow
6:55 AM 9.5 °F -1.5 °F 5.5 °F 84% 29.93 in 10.0 mi WNW 6.9 mph - N/A Snow Light Snow
7:15 AM 9.3 °F - 5.4 °F 84% 29.93 in 10.0 mi Calm Calm - N/A Snow Light Snow
7:35 AM 9.1 °F -0.7 °F 5.0 °F 83% 29.93 in 10.0 mi WNW 5.8 mph - N/A Snow Light Snow
7:55 AM 9.0 °F 0.6 °F 5.0 °F 84% 29.93 in 10.0 mi WNW 4.6 mph - N/A Snow Light Snow
8:15 AM 8.8 °F -1.1 °F 5.0 °F 85% 29.93 in 7.0 mi WNW 5.8 mph - N/A Snow Light Snow
8:35 AM 8.6 °F -2.6 °F 4.6 °F 84% 29.94 in 10.0 mi WNW 6.9 mph - N/A Snow Light Snow
8:55 AM 8.6 °F -1.3 °F 4.5 °F 83% 29.93 in 5.0 mi WNW 5.8 mph - N/A Snow Light Snow
9:15 AM 8.6 °F -2.6 °F 4.1 °F 82% 29.93 in 7.0 mi West 6.9 mph - N/A Snow Light Snow
9:35 AM 8.6 °F - 4.1 °F 82% 29.93 in 7.0 mi Calm Calm - N/A Snow Light Snow
9:55 AM 8.6 °F -3.7 °F 3.6 °F 80% 29.94 in 7.0 mi West 8.1 mph - N/A   Overcast
10:15 AM 8.4 °F - 3.2 °F 79% 29.93 in 10.0 mi Calm Calm - N/A   Overcast
10:35 AM 8.4 °F 1.8 °F 3.2 °F 79% 29.93 in 10.0 mi West 3.5 mph - N/A   Overcast
10:55 AM 8.6 °F 2.0 °F 3.0 °F 78% 29.93 in 10.0 mi SW 3.5 mph - N/A   Overcast
11:15 AM 8.4 °F - 2.8 °F 78% 29.91 in 10.0 mi Calm Calm - N/A   Overcast
11:35 AM 8.6 °F - 2.3 °F 76% 29.90 in 7.0 mi Calm Calm - N/A Snow Light Snow
11:55 AM 9.3 °F - 2.8 °F 75% 29.89 in 10.0 mi Calm Calm - N/A   Overcast
12:15 PM 8.6 °F - 2.1 °F 75% 29.87 in 10.0 mi Calm Calm - N/A   Mostly Cloudy
12:35 PM 10.4 °F - 2.7 °F 71% 29.84 in 10.0 mi Calm Calm - N/A   Scattered Clouds
12:55 PM 11.3 °F 1.9 °F 2.3 °F 67% 29.82 in 10.0 mi SSE 5.8 mph - N/A   Scattered Clouds
1:15 PM 11.8 °F - 2.3 °F 66% 29.82 in 10.0 mi Calm Calm - N/A   Clear
1:35 PM 12.0 °F 2.7 °F 2.1 °F 65% 29.82 in 10.0 mi WSW 5.8 mph - N/A   Clear
1:55 PM 12.2 °F - 2.1 °F 64% 29.81 in 10.0 mi Calm Calm - N/A   Clear
2:15 PM 12.2 °F 4.3 °F 2.3 °F 65% 29.80 in 10.0 mi SW 4.6 mph - N/A   Clear
2:35 PM 11.8 °F - 2.1 °F 65% 29.80 in 10.0 mi Calm Calm - N/A   Clear
2:55 PM 10.4 °F - 1.6 °F 68% 29.80 in 10.0 mi Calm Calm - N/A   Clear
3:15 PM 9.5 °F -1.5 °F 1.4 °F 70% 29.79 in 10.0 mi SW 6.9 mph - N/A   Scattered Clouds
3:35 PM 8.2 °F -1.8 °F 0.3 °F 70% 29.79 in 10.0 mi SSW 5.8 mph - N/A   Mostly Cloudy
3:55 PM 6.8 °F -2.0 °F -0.8 °F 71% 29.80 in 10.0 mi SSW 4.6 mph - N/A   Scattered Clouds
4:15 PM 5.9 °F -1.1 °F -1.3 °F 72% 29.78 in 10.0 mi South 3.5 mph - N/A   Mostly Cloudy
4:35 PM 5.5 °F -1.5 °F -1.5 °F 73% 29.76 in 10.0 mi South 3.5 mph - N/A   Mostly Cloudy
4:55 PM 5.0 °F -4.1 °F -1.5 °F 75% 29.74 in 10.0 mi South 4.6 mph - N/A   Overcast
5:15 PM 5.0 °F - -1.5 °F 75% 29.74 in 10.0 mi Calm Calm - N/A   Overcast
5:35 PM 4.6 °F - -1.5 °F 76% 29.73 in 10.0 mi Calm Calm - N/A   Overcast
5:55 PM 4.8 °F -4.3 °F -1.3 °F 76% 29.70 in 10.0 mi South 4.6 mph - N/A   Overcast
6:15 PM 5.0 °F -4.1 °F -1.1 °F 76% 29.69 in 10.0 mi South 4.6 mph - N/A   Mostly Cloudy
6:35 PM 5.5 °F - -0.6 °F 76% 29.69 in 10.0 mi Calm Calm - N/A   Overcast
6:55 PM 5.9 °F -5.8 °F -0.4 °F 75% 29.67 in 10.0 mi South 6.9 mph - N/A   Overcast
7:15 PM 5.9 °F -3.0 °F -0.0 °F 77% 29.64 in 10.0 mi South 4.6 mph - N/A   Overcast
7:35 PM 5.9 °F -3.0 °F 0.3 °F 78% 29.63 in 10.0 mi South 4.6 mph - N/A   Overcast
7:55 PM 6.3 °F -4.1 °F 0.9 °F 78% 29.61 in 10.0 mi South 5.8 mph - N/A   Overcast
8:15 PM 6.6 °F -5.0 °F 1.4 °F 79% 29.59 in 5.0 mi SSE 6.9 mph - N/A Snow Light Snow
8:35 PM 6.6 °F -6.1 °F 1.4 °F 79% 29.56 in 10.0 mi South 8.1 mph - N/A   Overcast
8:55 PM 6.8 °F -5.9 °F 1.8 °F 80% 29.56 in 10.0 mi South 8.1 mph - N/A   Overcast
9:15 PM 7.2 °F -5.4 °F 2.1 °F 80% 29.55 in 10.0 mi South 8.1 mph - N/A Snow Light Snow
9:35 PM 7.3 °F -5.2 °F 2.8 °F 82% 29.53 in 5.0 mi South 8.1 mph - N/A Snow Light Snow
9:55 PM 7.7 °F -2.4 °F 4.1 °F 85% 29.52 in 2.5 mi South 5.8 mph - N/A Snow Light Snow
10:15 PM 8.1 °F -5.3 °F 4.6 °F 86% 29.51 in 2.0 mi South 9.2 mph - N/A Snow Light Snow
10:35 PM 8.2 °F - 5.0 °F 87% 29.49 in 1.5 mi Calm Calm - N/A Snow Light Snow
10:55 PM 8.6 °F 0.1 °F 5.4 °F 87% 29.48 in 1.0 mi South 4.6 mph - N/A Snow Snow
11:15 PM 9.1 °F -1.9 °F 5.7 °F 86% 29.46 in 2.0 mi South 6.9 mph - N/A Snow Light Snow
11:35 PM 9.5 °F -0.3 °F 5.9 °F 85% 29.44 in 2.0 mi South 5.8 mph - N/A Snow Light Snow
11:55 PM 9.9 °F 0.2 °F 6.4 °F 86% 29.42 in 2.5 mi South 5.8 mph - N/A Snow Light Snow